Location: Woodstock
(35.2731°N, 89.9823°W)
Time: 21:14:28
(UTC+00:00)

Transit 2A - Pass Details

Date: 15 November 2024
Orbit: 592 x 956 km, 66.7° (Epoch: 03 December)

Event Time Altitude Azimuth Distance (km) Brightness Sun altitude
Exits shadow 10:57:46 21° 327° (NNW) 2,009 7.8 -20.0°
Drops below altitude 10° 11:01:15 10° 359° (N) 2,665 8.7 -19.3°
Sets 11:04:24 0° 15° (NNE) 3,580 9.5 -18.7°
